contact: severine.martini@mio.osupytheas.fr, dominique.lefevre@mio.osupytheas.fr
Project:EMSO Ligure-ouest http://www.emso-fr.org/EMSO-France
Sensor Microcat Sea-Bird SBE37 SMP,  Serial 57510 
DOI : "https://doi.org/10.17882/97948" 
Title:EMSO Ligure Ouest : Data Bathybot capteur Microcat - deploiement 2023-04-28
Datetime,Profondeur,Latitude,Longitude,Temperature,Conductivite,Pression,Salinite
time,m,degree_north,degree_east,degree_C,S/m,db,PSU 
2024-02-02T00:00:49,2420,42.8014,5.9826,13.3209,4.59999,2453.619,38.4726
2024-02-02T00:03:49,2420,42.8014,5.9826,13.3648,4.60010,2453.596,38.4302
2024-02-02T00:06:49,2420,42.8014,5.9826,13.3647,4.59992,2453.596,38.4286
2024-02-02T00:09:49,2420,42.8014,5.9826,13.3227,4.60016,2453.604,38.4726
2024-02-02T00:12:49,2420,42.8014,5.9826,13.3423,4.60010,2453.596,38.4524
2024-02-02T00:15:49,2420,42.8014,5.9826,13.3788,4.60013,2453.582,38.4166
2024-02-02T00:18:49,2420,42.8014,5.9826,13.3254,4.59987,2453.596,38.4670
2024-02-02T00:21:49,2420,42.8014,5.9826,13.3305,4.59990,2453.596,38.4622
2024-02-02T00:24:49,2420,42.8014,5.9826,13.3305,4.60002,2453.574,38.4635
2024-02-02T00:27:49,2420,42.8014,5.9826,13.3775,4.60134,2453.619,38.4293
2024-02-02T00:30:49,2420,42.8014,5.9826,13.3397,4.60137,2453.551,38.4670
2024-02-02T00:33:49,2420,42.8014,5.9826,13.3324,4.60035,2453.582,38.4647
2024-02-02T00:36:50,2420,42.8014,5.9826,13.3369,4.60022,2453.582,38.4589
2024-02-02T00:39:49,2420,42.8014,5.9826,13.3555,4.60019,2453.574,38.4403
2024-02-02T00:42:49,2420,42.8014,5.9826,13.3649,4.60049,2453.582,38.4338
2024-02-02T00:45:49,2420,42.8014,5.9826,13.3537,4.60019,2453.596,38.4420
2024-02-02T00:48:49,2420,42.8014,5.9826,13.3116,4.60212,2453.596,38.5019
2024-02-02T00:51:49,2420,42.8014,5.9826,13.3288,4.60152,2453.574,38.4792
2024-02-02T00:54:49,2420,42.8014,5.9826,13.3054,4.60028,2453.596,38.4908
2024-02-02T00:57:49,2420,42.8014,5.9826,13.3031,4.60081,2453.619,38.4980
2024-02-02T01:00:49,2420,42.8014,5.9826,13.3030,4.60031,2453.582,38.4934
2024-02-02T01:03:49,2420,42.8014,5.9826,13.3099,4.60044,2453.582,38.4878
2024-02-02T01:06:49,2420,42.8014,5.9826,13.3061,4.60030,2453.582,38.4903
2024-02-02T01:09:49,2420,42.8014,5.9826,13.3054,4.60024,2453.582,38.4904
2024-02-02T01:12:49,2420,42.8014,5.9826,13.3066,4.59982,2453.582,38.4852
2024-02-02T01:15:49,2420,42.8014,5.9826,13.2989,4.60023,2453.559,38.4968
2024-02-02T01:18:49,2420,42.8014,5.9826,13.2982,4.60005,2453.559,38.4957
2024-02-02T01:21:49,2420,42.8014,5.9826,13.2979,4.60256,2453.604,38.5198
2024-02-02T01:24:49,2420,42.8014,5.9826,13.2980,4.60208,2453.582,38.5151
2024-02-02T01:27:50,2420,42.8014,5.9826,13.2974,4.60029,2453.582,38.4988
2024-02-02T01:30:49,2420,42.8014,5.9826,13.2979,4.60052,2453.559,38.5005
2024-02-02T01:33:49,2420,42.8014,5.9826,13.2981,4.60229,2453.582,38.5170
2024-02-02T01:36:49,2420,42.8014,5.9826,13.2980,4.59984,2453.619,38.4939
2024-02-02T01:39:49,2420,42.8014,5.9826,13.2976,4.59964,2453.582,38.4925
2024-02-02T01:42:49,2420,42.8014,5.9826,13.2978,4.59991,2453.559,38.4948
2024-02-02T01:45:49,2420,42.8014,5.9826,13.2978,4.59979,2453.559,38.4938
2024-02-02T01:48:49,2420,42.8014,5.9826,13.2977,4.59932,2453.559,38.4894
2024-02-02T01:51:49,2420,42.8014,5.9826,13.2975,4.59946,2453.559,38.4908
2024-02-02T01:54:49,2420,42.8014,5.9826,13.2976,4.59931,2453.582,38.4894
2024-02-02T01:57:49,2420,42.8014,5.9826,13.2979,4.59931,2453.537,38.4891
2024-02-02T02:00:49,2420,42.8014,5.9826,13.2971,4.59941,2453.559,38.4908
2024-02-02T02:03:49,2420,42.8014,5.9826,13.2977,4.59928,2453.559,38.4890
2024-02-02T02:06:49,2420,42.8014,5.9826,13.2975,4.59937,2453.544,38.4901
2024-02-02T02:09:49,2420,42.8014,5.9826,13.2974,4.59929,2453.567,38.4894
2024-02-02T02:12:49,2420,42.8014,5.9826,13.2975,4.59927,2453.559,38.4891
2024-02-02T02:15:49,2420,42.8014,5.9826,13.2973,4.59920,2453.574,38.4886
2024-02-02T02:18:49,2420,42.8014,5.9826,13.2975,4.59926,2453.537,38.4890
2024-02-02T02:21:49,2420,42.8014,5.9826,13.2974,4.59926,2453.559,38.4891
2024-02-02T02:24:49,2420,42.8014,5.9826,13.2975,4.59932,2453.567,38.4896
2024-02-02T02:27:49,2420,42.8014,5.9826,13.2973,4.59923,2453.522,38.4890
2024-02-02T02:30:50,2420,42.8014,5.9826,13.2975,4.59928,2453.559,38.4891
2024-02-02T02:33:49,2420,42.8014,5.9826,13.2976,4.59922,2453.551,38.4886
2024-02-02T02:36:49,2420,42.8014,5.9826,13.2975,4.59922,2453.559,38.4886
2024-02-02T02:39:49,2420,42.8014,5.9826,13.2976,4.59918,2453.574,38.4881
2024-02-02T02:42:49,2420,42.8014,5.9826,13.2977,4.59923,2453.559,38.4886
2024-02-02T02:45:49,2420,42.8014,5.9826,13.2970,4.59922,2453.559,38.4891
2024-02-02T02:48:49,2420,42.8014,5.9826,13.2973,4.59916,2453.574,38.4882
2024-02-02T02:51:49,2420,42.8014,5.9826,13.2978,4.59925,2453.537,38.4886
2024-02-02T02:54:49,2420,42.8014,5.9826,13.2968,4.59921,2453.559,38.4892
2024-02-02T02:57:49,2420,42.8014,5.9826,13.2976,4.59916,2453.582,38.4879
2024-02-02T03:00:49,2420,42.8014,5.9826,13.2975,4.59918,2453.537,38.4883
2024-02-02T03:03:50,2420,42.8014,5.9826,13.2975,4.59923,2453.537,38.4887
2024-02-02T03:06:49,2420,42.8014,5.9826,13.2975,4.59926,2453.574,38.4890
2024-02-02T03:09:49,2420,42.8014,5.9826,13.2977,4.59923,2453.514,38.4886
2024-02-02T03:12:49,2420,42.8014,5.9826,13.2975,4.59928,2453.483,38.4892
2024-02-02T03:15:49,2420,42.8014,5.9826,13.2974,4.59928,2453.491,38.4893
2024-02-02T03:18:49,2420,42.8014,5.9826,13.2975,4.59917,2453.559,38.4882
2024-02-02T03:21:49,2420,42.8014,5.9826,13.2980,4.59929,2453.559,38.4888
2024-02-02T03:24:49,2420,42.8014,5.9826,13.2978,4.59926,2453.537,38.4888
2024-02-02T03:27:49,2420,42.8014,5.9826,13.2973,4.59927,2453.596,38.4893
2024-02-02T03:30:49,2420,42.8014,5.9826,13.2978,4.59927,2453.537,38.4888
2024-02-02T03:33:49,2420,42.8014,5.9826,13.2978,4.59931,2453.559,38.4892
2024-02-02T03:36:49,2420,42.8014,5.9826,13.2975,4.59926,2453.514,38.4890
2024-02-02T03:39:49,2420,42.8014,5.9826,13.2979,4.59920,2453.537,38.4880
2024-02-02T03:42:49,2420,42.8014,5.9826,13.2975,4.59928,2453.551,38.4892
2024-02-02T03:45:49,2420,42.8014,5.9826,13.2972,4.59918,2453.559,38.4886
2024-02-02T03:48:49,2420,42.8014,5.9826,13.2976,4.59922,2453.551,38.4886
2024-02-02T03:51:49,2420,42.8014,5.9826,13.2973,4.59927,2453.567,38.4893
2024-02-02T03:54:49,2420,42.8014,5.9826,13.2973,4.59933,2453.522,38.4898
2024-02-02T03:57:49,2420,42.8014,5.9826,13.2979,4.59925,2453.537,38.4884
2024-02-02T04:00:49,2420,42.8014,5.9826,13.2973,4.59914,2453.559,38.4880
2024-02-02T04:03:49,2420,42.8014,5.9826,13.2977,4.59940,2453.537,38.4902
2024-02-02T04:06:49,2420,42.8014,5.9826,13.2973,4.59922,2453.537,38.4888
2024-02-02T04:09:49,2420,42.8014,5.9826,13.2977,4.59920,2453.551,38.4882
2024-02-02T04:12:49,2420,42.8014,5.9826,13.2982,4.59923,2453.537,38.4881
2024-02-02T04:15:49,2420,42.8014,5.9826,13.2975,4.59918,2453.544,38.4882
2024-02-02T04:18:49,2420,42.8014,5.9826,13.2975,4.59915,2453.582,38.4879
2024-02-02T04:21:49,2420,42.8014,5.9826,13.2975,4.59917,2453.537,38.4882
2024-02-02T04:24:49,2420,42.8014,5.9826,13.2976,4.59917,2453.559,38.4880
2024-02-02T04:27:49,2420,42.8014,5.9826,13.2978,4.59911,2453.537,38.4873
2024-02-02T04:30:49,2420,42.8014,5.9826,13.2975,4.59915,2453.514,38.4880
2024-02-02T04:33:49,2420,42.8014,5.9826,13.2979,4.59917,2453.537,38.4878
2024-02-02T04:36:49,2420,42.8014,5.9826,13.2975,4.59920,2453.514,38.4885
2024-02-02T04:39:49,2420,42.8014,5.9826,13.2976,4.59914,2453.537,38.4878
2024-02-02T04:42:49,2420,42.8014,5.9826,13.2976,4.59915,2453.537,38.4879
2024-02-02T04:45:49,2420,42.8014,5.9826,13.2977,4.59919,2453.491,38.4882
2024-02-02T04:48:49,2420,42.8014,5.9826,13.2975,4.59913,2453.559,38.4878
2024-02-02T04:51:49,2420,42.8014,5.9826,13.2975,4.59919,2453.514,38.4883
2024-02-02T04:54:49,2420,42.8014,5.9826,13.2978,4.59917,2453.514,38.4878
2024-02-02T04:57:49,2420,42.8014,5.9826,13.2975,4.59918,2453.537,38.4883
2024-02-02T05:00:49,2420,42.8014,5.9826,13.2979,4.59918,2453.514,38.4879
2024-02-02T05:03:49,2420,42.8014,5.9826,13.2978,4.59917,2453.537,38.4879
2024-02-02T05:06:49,2420,42.8014,5.9826,13.2976,4.59916,2453.522,38.4880
2024-02-02T05:09:49,2420,42.8014,5.9826,13.2977,4.59908,2453.491,38.4871
2024-02-02T05:12:49,2420,42.8014,5.9826,13.2977,4.59908,2453.537,38.4871
2024-02-02T05:15:49,2420,42.8014,5.9826,13.2973,4.59909,2453.559,38.4876
2024-02-02T05:18:49,2420,42.8014,5.9826,13.2975,4.59912,2453.559,38.4877
2024-02-02T05:21:49,2420,42.8014,5.9826,13.2976,4.59917,2453.514,38.4880
2024-02-02T05:24:49,2420,42.8014,5.9826,13.2975,4.59916,2453.477,38.4881
2024-02-02T05:27:49,2420,42.8014,5.9826,13.2975,4.59914,2453.514,38.4880
2024-02-02T05:30:49,2420,42.8014,5.9826,13.2975,4.59915,2453.514,38.4880
2024-02-02T05:33:49,2420,42.8014,5.9826,13.2981,4.59917,2453.477,38.4876
2024-02-02T05:36:49,2420,42.8014,5.9826,13.2979,4.59911,2453.537,38.4871
2024-02-02T05:39:49,2420,42.8014,5.9826,13.2977,4.59914,2453.499,38.4877
2024-02-02T05:42:49,2420,42.8014,5.9826,13.2972,4.59922,2453.514,38.4890
2024-02-02T05:45:49,2420,42.8014,5.9826,13.2973,4.59911,2453.491,38.4878
2024-02-02T05:48:49,2420,42.8014,5.9826,13.2977,4.59920,2453.559,38.4882
2024-02-02T05:51:49,2420,42.8014,5.9826,13.2976,4.59922,2453.514,38.4885
2024-02-02T05:54:49,2420,42.8014,5.9826,13.2978,4.59914,2453.514,38.4876
2024-02-02T05:57:49,2420,42.8014,5.9826,13.2978,4.59916,2453.522,38.4878
2024-02-02T06:00:49,2420,42.8014,5.9826,13.2977,4.59910,2453.537,38.4873
2024-02-02T06:03:49,2420,42.8014,5.9826,13.2972,4.59911,2453.499,38.4880
2024-02-02T06:06:49,2420,42.8014,5.9826,13.2977,4.59913,2453.537,38.4876
2024-02-02T06:09:49,2420,42.8014,5.9826,13.2975,4.59917,2453.559,38.4882
2024-02-02T06:12:49,2420,42.8014,5.9826,13.2978,4.59922,2453.537,38.4883
2024-02-02T06:15:49,2420,42.8014,5.9826,13.2975,4.59930,2453.559,38.4894
2024-02-02T06:18:50,2420,42.8014,5.9826,13.2978,4.59922,2453.514,38.4884
2024-02-02T06:21:49,2420,42.8014,5.9826,13.2972,4.59923,2453.537,38.4891
2024-02-02T06:24:49,2420,42.8014,5.9826,13.2974,4.59917,2453.514,38.4883
2024-02-02T06:27:49,2420,42.8014,5.9826,13.2976,4.59911,2453.537,38.4875
2024-02-02T06:30:49,2420,42.8014,5.9826,13.2976,4.59919,2453.537,38.4882
2024-02-02T06:33:49,2420,42.8014,5.9826,13.2974,4.59912,2453.537,38.4878
2024-02-02T06:36:49,2420,42.8014,5.9826,13.2975,4.59915,2453.574,38.4880
2024-02-02T06:39:49,2420,42.8014,5.9826,13.2976,4.59922,2453.514,38.4886
2024-02-02T06:42:49,2420,42.8014,5.9826,13.2978,4.59913,2453.537,38.4875
2024-02-02T06:45:49,2420,42.8014,5.9826,13.2977,4.59914,2453.522,38.4878
2024-02-02T06:48:49,2420,42.8014,5.9826,13.2973,4.59930,2453.559,38.4895
2024-02-02T06:51:49,2420,42.8014,5.9826,13.2973,4.59918,2453.499,38.4884
2024-02-02T06:54:49,2420,42.8014,5.9826,13.2980,4.59918,2453.559,38.4878
2024-02-02T06:57:50,2420,42.8014,5.9826,13.2978,4.59928,2453.537,38.4890
2024-02-02T07:00:49,2420,42.8014,5.9826,13.2979,4.59928,2453.537,38.4887
2024-02-02T07:03:49,2420,42.8014,5.9826,13.2976,4.59927,2453.522,38.4890
2024-02-02T07:06:49,2420,42.8014,5.9826,13.2976,4.59942,2453.574,38.4905
2024-02-02T07:09:49,2420,42.8014,5.9826,13.2977,4.59935,2453.544,38.4897
2024-02-02T07:12:49,2420,42.8014,5.9826,13.2978,4.59927,2453.537,38.4888
2024-02-02T07:15:49,2420,42.8014,5.9826,13.2974,4.59931,2453.582,38.4896
2024-02-02T07:18:49,2420,42.8014,5.9826,13.2978,4.59946,2453.559,38.4906
2024-02-02T07:21:49,2420,42.8014,5.9826,13.2982,4.59994,2453.544,38.4948
2024-02-02T07:24:49,2420,42.8014,5.9826,13.2979,4.59930,2453.559,38.4890
2024-02-02T07:27:50,2420,42.8014,5.9826,13.2977,4.59937,2453.604,38.4898
2024-02-02T07:30:49,2420,42.8014,5.9826,13.2984,4.59923,2453.537,38.4879
2024-02-02T07:33:49,2420,42.8014,5.9826,13.2979,4.59930,2453.582,38.4890
2024-02-02T07:36:49,2420,42.8014,5.9826,13.2978,4.59932,2453.582,38.4893
2024-02-02T07:39:49,2420,42.8014,5.9826,13.2975,4.59930,2453.596,38.4894
2024-02-02T07:42:49,2420,42.8014,5.9826,13.2980,4.59942,2453.537,38.4900
2024-02-02T07:45:50,2420,42.8014,5.9826,13.2981,4.59935,2453.559,38.4893
2024-02-02T07:48:49,2420,42.8014,5.9826,13.2982,4.59944,2453.582,38.4900
2024-02-02T07:51:49,2420,42.8014,5.9826,13.2979,4.59948,2453.559,38.4907
2024-02-02T07:54:49,2420,42.8014,5.9826,13.2981,4.59948,2453.559,38.4905
2024-02-02T07:57:49,2420,42.8014,5.9826,13.2981,4.59946,2453.582,38.4902
2024-02-02T08:00:50,2420,42.8014,5.9826,13.2979,4.59952,2453.582,38.4910
2024-02-02T08:03:49,2420,42.8014,5.9826,13.2979,4.59954,2453.559,38.4912
2024-02-02T08:06:49,2420,42.8014,5.9826,13.2980,4.59957,2453.582,38.4914
2024-02-02T08:09:49,2420,42.8014,5.9826,13.2980,4.59952,2453.590,38.4910
2024-02-02T08:12:49,2420,42.8014,5.9826,13.2980,4.59990,2453.582,38.4945
2024-02-02T08:15:49,2420,42.8014,5.9826,13.2981,4.59991,2453.582,38.4946
2024-02-02T08:18:49,2420,42.8014,5.9826,13.2979,4.60108,2453.590,38.5057
2024-02-02T08:21:50,2420,42.8014,5.9826,13.2979,4.59980,2453.582,38.4937
2024-02-02T08:24:49,2420,42.8014,5.9826,13.3240,4.60294,2453.582,38.4974
2024-02-02T08:27:49,2420,42.8014,5.9826,13.2980,4.60115,2453.604,38.5064
2024-02-02T08:30:49,2420,42.8014,5.9826,13.3205,4.60149,2453.574,38.4873
2024-02-02T08:33:49,2420,42.8014,5.9826,13.3926,4.60054,2453.604,38.4068
2024-02-02T08:36:49,2420,42.8014,5.9826,13.3029,4.60048,2453.582,38.4951
2024-02-02T08:39:49,2420,42.8014,5.9826,13.3701,4.60055,2453.596,38.4293
2024-02-02T08:42:49,2420,42.8014,5.9826,13.3418,4.60094,2453.619,38.4609
2024-02-02T08:45:49,2420,42.8014,5.9826,13.3346,4.60009,2453.619,38.4600
2024-02-02T08:48:49,2420,42.8014,5.9826,13.3056,4.60008,2453.604,38.4886
2024-02-02T08:51:49,2420,42.8014,5.9826,13.3149,4.59970,2453.604,38.4758
2024-02-02T08:54:49,2420,42.8014,5.9826,13.3167,4.59971,2453.604,38.4742
2024-02-02T08:57:49,2420,42.8014,5.9826,13.3132,4.59988,2453.604,38.4793
2024-02-02T09:00:49,2420,42.8014,5.9826,13.3109,4.59974,2453.627,38.4802
2024-02-02T09:03:49,2420,42.8014,5.9826,13.3208,4.60023,2453.604,38.4750
2024-02-02T09:06:49,2420,42.8014,5.9826,13.3075,4.59977,2453.619,38.4839
2024-02-02T09:09:49,2420,42.8014,5.9826,13.3124,4.60014,2453.641,38.4825
2024-02-02T09:12:49,2420,42.8014,5.9826,13.3102,4.59985,2453.619,38.4820
2024-02-02T09:15:49,2420,42.8014,5.9826,13.3094,4.59989,2453.641,38.4831
2024-02-02T09:18:49,2420,42.8014,5.9826,13.3078,4.59991,2453.604,38.4849
2024-02-02T09:21:49,2420,42.8014,5.9826,13.3070,4.59990,2453.604,38.4856
2024-02-02T09:24:49,2420,42.8014,5.9826,13.3063,4.59998,2453.604,38.4870
2024-02-02T09:27:49,2420,42.8014,5.9826,13.3067,4.60001,2453.641,38.4869
2024-02-02T09:30:49,2420,42.8014,5.9826,13.3076,4.59970,2453.649,38.4830
2024-02-02T09:33:49,2420,42.8014,5.9826,13.3122,4.59998,2453.627,38.4812
2024-02-02T09:36:49,2420,42.8014,5.9826,13.3057,4.60019,2453.604,38.4897
2024-02-02T09:39:49,2420,42.8014,5.9826,13.3047,4.59988,2453.627,38.4877
2024-02-02T09:42:49,2420,42.8014,5.9826,13.3029,4.59997,2453.649,38.4904
2024-02-02T09:45:49,2420,42.8014,5.9826,13.3041,4.60014,2453.627,38.4908
2024-02-02T09:48:49,2420,42.8014,5.9826,13.3025,4.60019,2453.664,38.4928
2024-02-02T09:51:49,2420,42.8014,5.9826,13.3016,4.60010,2453.649,38.4928
2024-02-02T09:54:49,2420,42.8014,5.9826,13.3024,4.59970,2453.649,38.4883
2024-02-02T09:57:49,2420,42.8014,5.9826,13.3019,4.59972,2453.649,38.4890
2024-02-02T10:00:49,2420,42.8014,5.9826,13.3026,4.59962,2453.664,38.4873
2024-02-02T10:03:49,2420,42.8014,5.9826,13.3026,4.59936,2453.664,38.4848
2024-02-02T10:06:49,2420,42.8014,5.9826,13.3031,4.59948,2453.649,38.4855
2024-02-02T10:09:49,2420,42.8014,5.9826,13.3041,4.59971,2453.649,38.4866
2024-02-02T10:12:49,2420,42.8014,5.9826,13.3056,4.60010,2453.649,38.4888
2024-02-02T10:15:49,2420,42.8014,5.9826,13.3044,4.60041,2453.672,38.4929
2024-02-02T10:18:49,2420,42.8014,5.9826,13.3058,4.60003,2453.695,38.4880
2024-02-02T10:21:49,2420,42.8014,5.9826,13.3015,4.59991,2453.649,38.4911
2024-02-02T10:24:49,2420,42.8014,5.9826,13.3014,4.59964,2453.649,38.4887
2024-02-02T10:27:49,2420,42.8014,5.9826,13.3035,4.59968,2453.664,38.4870
2024-02-02T10:30:50,2420,42.8014,5.9826,13.3030,4.59958,2453.641,38.4865
2024-02-02T10:33:49,2420,42.8014,5.9826,13.3019,4.59987,2453.672,38.4903
2024-02-02T10:36:49,2420,42.8014,5.9826,13.3015,4.60008,2453.649,38.4928
2024-02-02T10:39:49,2420,42.8014,5.9826,13.3033,4.60006,2453.695,38.4908
2024-02-02T10:42:49,2420,42.8014,5.9826,13.3084,4.60010,2453.649,38.4861
2024-02-02T10:45:49,2420,42.8014,5.9826,13.3059,4.60044,2453.664,38.4917
2024-02-02T10:48:50,2420,42.8014,5.9826,13.3235,4.60021,2453.672,38.4721
2024-02-02T10:51:49,2420,42.8014,5.9826,13.3202,4.60023,2453.695,38.4756
2024-02-02T10:54:49,2420,42.8014,5.9826,13.3092,4.60022,2453.649,38.4865
2024-02-02T10:57:49,2420,42.8014,5.9826,13.3079,4.60025,2453.649,38.4880
2024-02-02T11:00:49,2420,42.8014,5.9826,13.3114,4.59988,2453.649,38.4810
2024-02-02T11:03:49,2420,42.8014,5.9826,13.3042,4.59991,2453.695,38.4884
2024-02-02T11:06:49,2420,42.8014,5.9826,13.3069,4.59964,2453.649,38.4832
2024-02-02T11:09:49,2420,42.8014,5.9826,13.3073,4.60002,2453.649,38.4864
2024-02-02T11:12:49,2420,42.8014,5.9826,13.3053,4.60011,2453.672,38.4893
2024-02-02T11:15:49,2420,42.8014,5.9826,13.3041,4.59981,2453.687,38.4876
2024-02-02T11:18:49,2420,42.8014,5.9826,13.3035,4.60033,2453.687,38.4930
2024-02-02T11:21:49,2420,42.8014,5.9826,13.3064,4.60044,2453.649,38.4913
2024-02-02T11:24:49,2420,42.8014,5.9826,13.3123,4.60012,2453.649,38.4824
2024-02-02T11:27:49,2420,42.8014,5.9826,13.3095,4.60032,2453.672,38.4870
2024-02-02T11:30:49,2420,42.8014,5.9826,13.3099,4.60048,2453.695,38.4881
2024-02-02T11:33:49,2420,42.8014,5.9826,13.3106,4.59994,2453.672,38.4824
2024-02-02T11:36:49,2420,42.8014,5.9826,13.3141,4.59994,2453.672,38.4790
2024-02-02T11:39:49,2420,42.8014,5.9826,13.3084,4.59986,2453.672,38.4838
2024-02-02T11:42:49,2420,42.8014,5.9826,13.3088,4.59982,2453.649,38.4831
2024-02-02T11:45:49,2420,42.8014,5.9826,13.3026,4.60005,2453.649,38.4914
2024-02-02T11:48:49,2420,42.8014,5.9826,13.3035,4.59982,2453.672,38.4883
2024-02-02T11:51:49,2420,42.8014,5.9826,13.3034,4.59959,2453.672,38.4863
2024-02-02T11:54:49,2420,42.8014,5.9826,13.3043,4.59974,2453.695,38.4867
2024-02-02T11:57:49,2420,42.8014,5.9826,13.3092,4.59985,2453.709,38.4830
2024-02-02T12:00:49,2420,42.8014,5.9826,13.3139,4.59978,2453.672,38.4776
2024-02-02T12:03:50,2420,42.8014,5.9826,13.3104,4.59952,2453.672,38.4786
2024-02-02T12:06:49,2420,42.8014,5.9826,13.3224,4.59947,2453.672,38.4663
2024-02-02T12:09:49,2420,42.8014,5.9826,13.3087,4.60004,2453.649,38.4852
2024-02-02T12:12:49,2420,42.8014,5.9826,13.3007,4.60002,2453.672,38.4929
2024-02-02T12:15:49,2420,42.8014,5.9826,13.3260,4.59987,2453.672,38.4664
2024-02-02T12:18:49,2420,42.8014,5.9826,13.3152,4.60018,2453.672,38.4800
2024-02-02T12:21:49,2420,42.8014,5.9826,13.3177,4.59988,2453.709,38.4747
2024-02-02T12:24:49,2420,42.8014,5.9826,13.3238,4.59965,2453.641,38.4665
2024-02-02T12:27:49,2420,42.8014,5.9826,13.3164,4.59961,2453.687,38.4735
2024-02-02T12:30:49,2420,42.8014,5.9826,13.3106,4.59988,2453.649,38.4818
2024-02-02T12:33:49,2420,42.8014,5.9826,13.3063,4.59973,2453.687,38.4846
2024-02-02T12:36:49,2420,42.8014,5.9826,13.3206,4.59983,2453.649,38.4714
2024-02-02T12:39:49,2420,42.8014,5.9826,13.3145,4.59960,2453.695,38.4753
2024-02-02T12:42:49,2420,42.8014,5.9826,13.3132,4.59972,2453.672,38.4778
2024-02-02T12:45:49,2420,42.8014,5.9826,13.3094,4.59948,2453.649,38.4792
2024-02-02T12:48:49,2420,42.8014,5.9826,13.3060,4.59994,2453.649,38.4870
2024-02-02T12:51:49,2420,42.8014,5.9826,13.3060,4.59958,2453.664,38.4836
2024-02-02T12:54:49,2420,42.8014,5.9826,13.3174,4.60055,2453.649,38.4814
2024-02-02T12:57:49,2420,42.8014,5.9826,13.3130,4.60010,2453.687,38.4815
2024-02-02T13:00:49,2420,42.8014,5.9826,13.3141,4.59959,2453.664,38.4755
2024-02-02T13:03:49,2420,42.8014,5.9826,13.3129,4.59960,2453.649,38.4769
2024-02-02T13:06:49,2420,42.8014,5.9826,13.3089,4.59962,2453.649,38.4811
2024-02-02T13:09:49,2420,42.8014,5.9826,13.3214,4.59963,2453.664,38.4688
2024-02-02T13:12:50,2420,42.8014,5.9826,13.3123,4.59949,2453.687,38.4765
2024-02-02T13:15:49,2420,42.8014,5.9826,13.3131,4.59970,2453.649,38.4777
2024-02-02T13:18:49,2420,42.8014,5.9826,13.3107,4.59970,2453.649,38.4800
2024-02-02T13:21:49,2420,42.8014,5.9826,13.3164,4.59963,2453.664,38.4737
2024-02-02T13:24:49,2420,42.8014,5.9826,13.3168,4.59968,2453.664,38.4737
2024-02-02T13:27:49,2420,42.8014,5.9826,13.3360,4.59980,2453.664,38.4559
2024-02-02T13:30:49,2420,42.8014,5.9826,13.3176,4.59996,2453.649,38.4757
2024-02-02T13:33:49,2420,42.8014,5.9826,13.3202,4.59976,2453.649,38.4712
2024-02-02T13:36:49,2420,42.8014,5.9826,13.3194,4.59974,2453.672,38.4718
2024-02-02T13:39:49,2420,42.8014,5.9826,13.3238,4.59989,2453.619,38.4689
2024-02-02T13:42:49,2420,42.8014,5.9826,13.3123,4.59996,2453.649,38.4809
2024-02-02T13:45:49,2420,42.8014,5.9826,13.3198,4.59990,2453.649,38.4728
2024-02-02T13:48:49,2420,42.8014,5.9826,13.3172,4.59985,2453.687,38.4750
2024-02-02T13:51:49,2420,42.8014,5.9826,13.3141,4.59968,2453.627,38.4766
2024-02-02T13:54:49,2420,42.8014,5.9826,13.3132,4.59976,2453.641,38.4781
2024-02-02T13:57:49,2420,42.8014,5.9826,13.3151,4.59974,2453.672,38.4760
2024-02-02T14:00:49,2420,42.8014,5.9826,13.3184,4.60002,2453.649,38.4754
2024-02-02T14:03:49,2420,42.8014,5.9826,13.3118,4.59986,2453.641,38.4805
2024-02-02T14:06:49,2420,42.8014,5.9826,13.3274,4.59988,2453.664,38.4652
2024-02-02T14:09:49,2420,42.8014,5.9826,13.3233,4.60003,2453.641,38.4706
2024-02-02T14:12:49,2420,42.8014,5.9826,13.3164,4.59999,2453.649,38.4771
2024-02-02T14:15:49,2420,42.8014,5.9826,13.3165,4.59997,2453.649,38.4768
2024-02-02T14:18:49,2420,42.8014,5.9826,13.3088,4.59982,2453.627,38.4830
2024-02-02T14:21:49,2420,42.8014,5.9826,13.3151,4.59980,2453.641,38.4766
2024-02-02T14:24:49,2420,42.8014,5.9826,13.3201,4.59988,2453.627,38.4724
2024-02-02T14:27:49,2420,42.8014,5.9826,13.3225,4.59971,2453.641,38.4684
2024-02-02T14:30:49,2420,42.8014,5.9826,13.3106,4.59975,2453.649,38.4806
2024-02-02T14:33:49,2420,42.8014,5.9826,13.3074,4.60008,2453.612,38.4869
2024-02-02T14:36:49,2420,42.8014,5.9826,13.3086,4.59953,2453.627,38.4805
2024-02-02T14:39:49,2420,42.8014,5.9826,13.3108,4.59965,2453.627,38.4795
2024-02-02T14:42:49,2420,42.8014,5.9826,13.3100,4.59996,2453.649,38.4832
2024-02-02T14:45:49,2420,42.8014,5.9826,13.3098,4.59964,2453.627,38.4803
2024-02-02T14:48:49,2420,42.8014,5.9826,13.3088,4.59981,2453.619,38.4830
2024-02-02T14:51:49,2420,42.8014,5.9826,13.3134,4.59971,2453.619,38.4774
2024-02-02T14:54:49,2420,42.8014,5.9826,13.3236,4.59990,2453.627,38.4692
2024-02-02T14:57:49,2420,42.8014,5.9826,13.3191,4.60002,2453.627,38.4748
2024-02-02T15:00:49,2420,42.8014,5.9826,13.3134,4.59989,2453.641,38.4791
2024-02-02T15:03:49,2420,42.8014,5.9826,13.3079,4.59984,2453.619,38.4842
2024-02-02T15:06:49,2420,42.8014,5.9826,13.3098,4.59990,2453.627,38.4828
2024-02-02T15:09:49,2420,42.8014,5.9826,13.3090,4.59977,2453.627,38.4823
2024-02-02T15:12:49,2420,42.8014,5.9826,13.3233,4.59978,2453.641,38.4683
2024-02-02T15:15:49,2420,42.8014,5.9826,13.3222,4.59974,2453.619,38.4691
2024-02-02T15:18:49,2420,42.8014,5.9826,13.3214,4.59960,2453.619,38.4685
2024-02-02T15:21:49,2420,42.8014,5.9826,13.3083,4.59950,2453.604,38.4806
2024-02-02T15:24:49,2420,42.8014,5.9826,13.3149,4.59985,2453.627,38.4773
2024-02-02T15:27:49,2420,42.8014,5.9826,13.3023,4.59964,2453.627,38.4878
2024-02-02T15:30:49,2420,42.8014,5.9826,13.3063,4.59978,2453.619,38.4851
2024-02-02T15:33:49,2420,42.8014,5.9826,13.3127,4.59942,2453.582,38.4755
2024-02-02T15:36:49,2420,42.8014,5.9826,13.3062,4.59979,2453.582,38.4853
2024-02-02T15:39:49,2420,42.8014,5.9826,13.3180,4.59988,2453.604,38.4745
2024-02-02T15:42:49,2420,42.8014,5.9826,13.3102,4.59973,2453.604,38.4809
2024-02-02T15:45:49,2420,42.8014,5.9826,13.3141,4.59962,2453.582,38.4759
2024-02-02T15:48:49,2420,42.8014,5.9826,13.3026,4.59974,2453.604,38.4884
2024-02-02T15:51:49,2420,42.8014,5.9826,13.3067,4.59985,2453.582,38.4855
2024-02-02T15:54:49,2420,42.8014,5.9826,13.3283,4.59949,2453.582,38.4606
2024-02-02T15:57:49,2420,42.8014,5.9826,13.3033,4.59957,2453.619,38.4861
2024-02-02T16:00:49,2420,42.8014,5.9826,13.3004,4.60016,2453.582,38.4946
2024-02-02T16:03:49,2420,42.8014,5.9826,13.3252,4.59951,2453.582,38.4639